Theta_e
331 331 331 330 329 329 327 326 324 322 320 318 317 316 315 314 312 309 305 300 297 297 297 297 297 297 296 296 296 296 296 296 296 297 296 297 296 296 296 296 296 296 296 295 295 294 294 294 294 294 293 293 293 293 293 293 293 292 293 293 293 293 293 293 293 293 293 293 293 293 293 293 293 293 292 292 293 293 294 294 294 295 295 295 295
331 331 330 329 328 327 325 324 322 320 319 317 316 315 314 313 311 307 302 299 297 297 296 296 296 296 296 296 296 296 296 296 296 296 296 296 296 297 296 296 296 296 295 295 294 294 294 294 294 294 293 293 293 293 293 293 292 292 293 292 292 293 293 293 293 292 293 293 293 293 293 292 293 293 292 292 293 293 293 294 294 294 295 295 295
330 329 329 328 326 325 323 322 320 319 317 316 316 315 313 312 310 305 300 298 297 296 296 296 296 295 296 295 295 296 296 296 296 296 296 296 296 296 296 296 296 296 296 295 295 294 294 294 294 294 293 293 293 293 292 292 292 292 292 292 292 292 292 292 293 292 292 292 292 292 292 292 292 292 292 292 293 293 293 294 294 294 295 295 295
329 328 327 326 325 323 322 321 319 317 316 315 315 314 312 311 308 302 298 298 297 296 296 296 295 295 295 295 295 295 295 296 296 295 296 296 296 296 295 295 296 296 295 295 295 295 295 294 294 294 293 293 293 292 292 292 292 292 292 292 292 292 292 292 292 292 292 291 292 292 292 292 292 292 292 292 293 293 293 294 294 295 295 295 295
328 328 326 325 324 323 321 319 318 316 315 314 313 312 311 310 305 300 298 298 297 296 296 295 295 295 295 295 295 295 295 295 295 295 296 296 296 296 295 296 296 296 295 295 295 295 295 294 294 294 293 293 293 292 292 292 292 292 292 292 292 292 292 292 292 291 291 291 291 292 291 291 292 292 292 293 293 293 294 294 294 295 295 295 295
328 327 325 324 323 321 319 317 317 316 314 313 312 310 310 308 302 298 298 298 297 296 295 295 295 295 295 295 295 295 295 295 295 295 295 296 296 295 296 296 296 295 295 295 295 295 295 294 294 294 293 292 292 292 292 292 292 292 292 292 292 292 291 291 291 291 290 290 291 291 291 291 292 292 293 293 293 294 294 294 295 295 295 295 295
327 326 324 323 321 319 317 316 316 315 313 311 310 309 309 305 300 298 298 298 297 295 295 295 295 295 295 295 294 295 295 295 295 295 295 295 295 295 296 295 295 295 295 295 295 295 295 294 294 294 293 292 292 292 292 292 292 292 292 292 292 291 291 291 291 290 290 290 290 290 291 291 292 293 293 293 294 294 294 294 294 295 295 294 294
327 325 324 322 320 317 316 315 314 313 311 310 309 308 306 302 299 299 298 298 297 295 294 295 295 295 295 295 295 295 295 294 295 295 295 295 295 295 295 295 295 294 294 295 295 295 294 294 294 294 293 292 292 292 292 292 292 292 292 292 292 291 291 291 290 290 289 290 290 290 291 292 292 293 294 294 294 294 294 294 294 295 295 294 294
326 325 324 323 319 316 315 314 312 311 310 309 309 307 304 300 299 299 298 297 296 295 294 295 294 295 295 294 295 294 294 294 294 295 295 295 295 295 295 295 295 295 294 294 294 294 294 293 294 293 293 292 292 292 292 292 292 292 291 291 291 291 290 290 290 289 289 290 290 291 291 292 293 294 294 294 294 294 294 294 294 294 294 294 293
326 325 324 323 319 316 314 313 311 310 310 309 308 305 302 299 299 299 298 297 296 294 294 295 294 294 294 294 294 294 294 294 294 294 295 295 295 295 294 294 294 295 294 294 294 294 293 293 293 293 292 292 292 293 293 292 292 291 291 291 291 290 290 290 290 289 289 289 290 291 292 293 293 294 294 294 294 293 293 293 293 293 293 293 293
326 325 324 322 319 316 313 312 311 310 310 309 306 303 301 299 299 299 298 296 295 294 294 294 294 294 294 294 294 294 294 294 294 294 294 294 294 294 294 294 294 294 294 294 294 293 293 293 293 293 292 292 292 293 293 292 291 291 291 291 291 291 290 290 290 289 289 290 290 292 292 293 294 294 294 294 294 293 293 293 293 293 293 293 293
326 324 322 321 318 316 313 312 311 311 310 309 306 303 301 299 299 299 297 296 295 294 294 294 294 294 294 294 294 294 294 294 294 294 294 294 294 294 293 293 293 294 294 294 294 294 293 293 293 292 292 292 293 293 292 292 291 291 291 291 291 291 291 290 290 289 289 290 291 292 293 293 294 294 294 294 294 293 293 293 293 293 293 293 293
324 322 321 319 317 315 314 312 312 311 310 309 306 303 301 299 298 298 297 296 295 294 294 294 294 294 294 294 294 294 294 294 294 294 294 294 294 294 293 293 293 293 293 294 294 293 293 293 292 292 292 292 293 293 292 291 291 291 291 291 291 291 291 291 290 290 290 291 291 292 293 294 294 293 294 294 294 293 293 293 293 293 293 293 293
322 321 319 317 315 314 313 312 311 310 309 308 307 304 300 298 298 298 297 296 294 294 294 294 294 294 294 294 294 294 294 294 294 294 294 294 293 293 293 293 292 292 293 293 293 293 293 293 292 292 292 293 293 293 292 291 291 290 290 291 291 291 291 291 291 290 290 291 292 292 293 293 293 293 293 294 294 293 293 293 293 293 293 293 293
320 318 317 315 314 313 312 311 310 310 309 308 307 304 300 299 298 297 296 295 294 294 294 294 294 294 294 294 294 294 294 294 293 293 293 293 293 293 293 293 293 292 292 292 293 293 293 292 292 292 293 293 293 293 292 292 291 290 290 290 290 291 291 291 291 290 290 290 291 292 293 293 293 293 293 293 294 294 293 293 293 293 293 293 293
319 317 316 315 313 312 312 311 310 310 309 308 306 303 300 300 299 297 296 295 294 293 293 294 293 294 294 294 293 293 293 293 293 293 293 293 293 293 293 293 293 292 292 292 292 292 292 292 292 293 293 293 293 293 293 292 291 290 290 291 290 290 291 291 291 291 290 290 291 292 293 293 293 293 293 294 294 294 294 294 294 293 293 293 293
319 318 316 315 313 312 311 311 310 310 309 307 304 302 300 300 299 298 296 295 294 293 293 293 293 293 293 293 293 293 293 293 293 293 293 293 293 293 293 293 293 292 292 292 292 292 292 292 292 293 293 293 293 293 293 292 291 290 290 291 291 290 290 291 291 291 291 290 290 291 292 293 293 293 293 294 294 294 294 294 294 293 293 293 293
320 319 317 315 314 313 312 311 310 310 308 305 303 302 301 300 299 298 297 296 294 293 293 293 293 293 293 293 293 293 293 293 293 293 294 294 293 293 293 293 293 293 292 292 292 292 292 292 292 292 292 293 293 293 293 292 291 290 290 290 290 290 290 290 291 291 291 291 290 290 291 292 293 293 293 293 294 294 293 293 293 293 293 293 293
321 319 317 316 314 313 312 311 310 309 306 304 303 301 301 300 299 298 298 296 294 293 293 293 293 293 293 293 293 293 293 293 293 293 294 294 294 294 293 293 293 293 293 292 292 292 292 292 292 292 292 293 293 293 292 292 291 290 290 290 290 290 290 290 290 291 291 291 290 290 291 292 293 293 293 293 293 294 293 293 293 293 293 293 293
321 319 317 315 314 313 312 311 310 307 304 303 302 301 300 300 300 299 298 297 294 293 293 293 293 293 293 293 293 292 292 293 293 294 294 294 294 294 293 294 293 293 292 292 292 292 292 292 292 292 293 293 293 293 292 291 291 290 290 290 290 290 290 290 290 290 291 291 290 290 290 291 292 293 293 293 293 293 293 294 294 294 293 293 293
319 318 316 315 314 313 312 311 309 306 304 303 303 302 301 300 300 298 298 297 295 293 292 293 293 293 293 293 293 293 293 293 293 293 293 293 294 293 293 294 293 293 292 292 292 292 292 292 292 293 293 293 293 293 292 291 291 291 290 290 290 290 290 290 290 290 291 291 291 290 290 291 292 293 293 293 292 293 293 294 295 294 294 293 293
319 318 316 315 314 313 312 310 307 305 304 304 303 302 302 301 300 298 297 297 296 294 293 293 293 293 293 293 293 293 293 293 293 293 293 293 294 293 294 294 293 292 292 292 292 293 293 293 293 293 293 294 293 293 292 292 292 292 291 291 290 290 290 290 290 290 291 291 291 290 290 291 292 293 293 293 292 292 293 294 295 295 295 294 293
319 317 316 315 314 312 311 308 306 305 304 304 302 302 302 301 299 298 297 296 296 295 293 292 293 293 294 294 294 294 294 294 294 293 293 293 294 293 294 293 293 293 293 293 293 293 293 293 293 293 294 294 294 293 293 292 292 292 292 292 291 291 291 291 291 291 291 290 291 290 290 290 291 293 293 293 293 292 292 293 295 295 296 295 294
319 317 316 314 313 312 309 306 304 304 303 303 302 302 301 299 298 298 297 296 296 295 293 292 293 294 295 295 295 295 294 294 294 293 293 293 294 294 294 293 293 293 293 293 293 293 293 293 293 294 294 294 294 294 293 293 292 292 292 292 292 291 291 291 291 291 291 291 290 290 290 290 291 292 293 293 293 293 292 293 294 295 296 296 295
318 316 315 314 312 311 308 305 303 303 302 301 301 301 300 299 298 297 297 295 294 294 293 292 293 295 295 296 296 295 295 294 294 293 293 293 293 294 294 294 293 293 293 293 293 294 294 294 294 294 295 295 295 294 294 293 293 292 292 292 292 292 291 291 291 291 291 291 290 290 290 290 290 292 293 293 293 293 292 292 293 295 296 297 297
317 316 315 313 312 310 308 304 303 303 302 301 300 300 299 298 297 296 295 294 294 293 292 293 294 296 296 297 297 296 296 295 294 294 293 293 293 293 294 294 294 294 294 294 294 294 294 294 295 295 295 295 295 295 294 293 293 292 292 292 292 292 291 291 291 291 291 291 290 290 290 290 290 291 292 293 293 293 293 292 292 294 295 296 297
317 315 314 313 311 310 307 304 303 303 302 301 301 300 299 297 296 295 294 294 294 293 292 293 295 296 297 297 297 297 296 296 295 294 293 293 293 293 293 294 294 294 294 294 294 294 295 295 295 295 295 295 295 295 294 294 293 293 292 292 292 292 292 291 291 291 291 291 290 290 290 290 290 291 292 292 293 293 293 292 292 293 294 295 296
316 315 314 313 311 309 307 305 303 302 301 300 300 300 298 297 295 294 294 294 294 293 293 293 295 297 298 297 297 297 297 296 295 294 294 294 294 293 293 293 293 294 294 295 295 295 295 295 296 296 296 296 296 296 295 295 294 293 293 292 292 292 292 292 292 292 291 291 291 290 290 290 290 291 292 292 293 293 293 293 292 292 293 294 295
315 314 313 312 311 309 307 305 302 301 300 300 300 299 298 296 295 294 294 294 294 294 293 294 296 297 298 298 298 298 297 297 296 295 294 294 293 293 294 293 293 293 294 294 295 295 295 296 296 296 296 296 296 296 296 295 295 294 293 293 292 292 293 292 292 292 292 291 291 290 290 290 290 290 291 292 292 293 293 293 292 292 292 294 294
314 313 312 312 311 309 306 304 302 300 300 300 300 300 299 297 295 294 294 293 293 293 294 296 297 298 298 298 298 298 297 298 297 295 294 294 294 294 294 293 293 293 293 294 295 295 295 296 296 296 296 296 296 296 296 296 295 294 293 293 293 292 293 292 292 292 292 291 291 290 290 290 290 290 291 292 292 292 293 293 293 292 292 293 294
314 313 312 312 311 308 305 302 301 300 300 300 300 300 299 298 296 295 294 293 294 295 296 298 299 299 299 299 298 298 298 297 296 295 294 293 293 294 293 293 293 293 293 294 295 295 296 296 296 296 296 296 297 296 296 296 296 295 293 293 293 293 293 292 292 292 292 291 291 290 290 290 290 290 290 292 292 292 293 293 293 293 292 292 293
314 314 313 312 310 307 304 302 301 301 301 301 301 300 299 298 296 295 294 295 296 297 298 299 299 299 299 299 299 298 298 298 298 297 295 294 293 293 293 293 293 293 294 294 295 295 296 296 296 297 297 297 297 297 296 296 296 295 294 294 294 294 294 293 293 292 292 291 291 290 290 290 290 290 290 291 292 292 292 293 293 293 292 292 292
315 314 313 311 309 306 303 302 301 301 301 301 301 301 300 297 296 295 295 296 298 299 299 300 300 300 299 299 299 299 299 299 299 298 296 294 293 293 293 293 294 294 295 295 295 296 296 296 296 297 297 297 297 297 297 296 296 295 294 294 295 295 295 295 294 293 292 292 291 291 290 290 290 290 289 290 291 292 292 292 292 293 293 292 292
314 313 313 311 308 306 304 302 302 301 301 301 301 301 299 297 295 295 296 298 299 299 300 300 300 300 299 299 299 299 299 299 300 299 297 294 293 293 294 294 295 295 296 296 296 296 296 296 297 297 297 297 297 297 297 296 296 295 295 295 295 296 296 296 296 295 294 293 292 291 290 290 290 290 289 289 290 291 292 292 292 292 293 293 292
313 313 312 310 308 306 304 303 302 302 302 301 301 301 299 297 295 295 297 298 299 299 300 300 300 300 299 299 300 300 300 300 300 299 296 293 294 296 296 295 296 296 297 297 297 297 297 297 297 297 297 297 297 297 297 296 296 296 295 295 295 296 296 296 296 296 296 295 293 292 291 290 290 290 289 289 289 290 291 292 292 292 292 293 292
313 312 310 309 308 307 305 303 302 302 302 301 301 300 299 297 295 295 297 298 299 300 301 301 300 300 300 300 300 300 300 301 300 297 294 294 296 298 297 297 296 297 297 297 297 297 297 297 297 297 297 297 297 297 297 296 296 296 296 296 296 296 296 296 296 296 296 296 295 293 292 291 290 290 290 289 289 289 290 291 292 292 292 292 293
312 312 311 309 308 307 305 304 303 302 302 301 301 300 299 298 297 296 296 297 299 300 301 301 300 300 300 300 299 299 299 299 298 296 295 296 298 299 298 298 298 298 298 298 298 298 297 297 297 296 296 297 297 297 297 296 296 296 296 296 296 296 296 296 296 296 296 296 296 295 293 292 291 290 290 290 289 289 289 290 291 292 292 292 292
313 312 311 310 308 307 305 304 303 302 302 301 301 300 299 299 298 297 296 297 298 300 301 301 301 301 300 299 298 296 296 296 296 296 297 298 298 299 299 299 299 299 299 299 299 298 298 298 297 297 296 297 297 297 297 296 296 296 296 296 297 297 297 296 296 296 296 296 296 296 295 294 292 291 290 290 289 289 289 289 290 292 292 292 292
312 312 311 309 308 307 305 303 303 302 302 301 300 300 299 299 298 297 296 297 298 300 301 301 301 300 300 299 298 297 295 295 296 298 299 299 299 299 299 299 299 299 299 299 299 299 298 298 297 297 297 297 297 297 297 297 297 297 297 297 297 297 297 297 297 296 296 296 296 296 296 296 294 293 291 290 290 289 289 289 289 290 292 292 292
311 311 310 308 307 306 305 304 303 302 301 301 300 300 300 299 298 297 296 297 299 301 301 301 300 300 299 299 299 298 297 297 298 299 299 299 299 299 299 299 299 299 299 299 299 299 298 298 298 297 297 297 297 297 297 297 297 297 297 297 297 297 297 297 297 297 297 296 296 296 296 296 296 295 293 292 291 290 290 289 289 289 290 291 292
311 310 309 308 307 305 304 303 303 302 302 301 301 300 300 300 298 297 296 297 299 301 301 300 300 300 299 299 300 300 299 299 299 299 299 300 300 300 299 299 299 299 299 299 299 299 298 298 298 297 297 297 297 297 297 297 297 297 297 297 297 297 297 297 297 297 297 297 297 296 296 296 296 296 295 294 292 291 290 290 289 289 289 290 291
310 310 309 307 306 305 304 303 303 302 301 301 301 300 300 300 298 296 295 296 299 300 300 300 300 299 299 300 300 300 300 299 299 299 299 300 300 300 299 299 299 299 299 299 299 299 298 298 298 298 297 297 297 297 297 297 297 297 298 298 298 298 298 298 298 297 297 297 297 297 296 296 296 296 296 295 294 293 292 291 290 290 289 289 290
309 309 309 307 306 305 304 303 303 302 301 301 301 300 301 300 298 295 295 296 298 299 300 300 300 300 300 300 301 301 300 300 300 300 300 300 299 299 299 299 299 299 299 299 298 298 298 298 298 298 298 298 297 297 297 297 297 298 298 298 298 298 298 298 298 297 297 297 297 297 297 296 296 296 296 296 295 294 293 292 291 291 290 289 289
308 308 308 307 306 304 303 303 302 302 302 301 300 300 300 299 297 295 295 296 297 299 300 301 301 301 301 301 301 301 301 301 300 300 300 300 299 299 299 299 299 299 299 299 298 298 298 298 298 298 298 298 298 298 298 297 298 298 298 298 298 298 298 298 298 298 297 297 297 297 297 297 296 296 296 296 296 296 295 294 293 291 291 290 290
308 307 307 306 305 304 303 303 302 302 302 301 300 299 298 297 296 296 296 295 296 299 300 301 301 301 301 301 301 301 300 300 300 300 300 300 300 300 300 299 299 299 299 299 299 298 298 298 298 298 298 298 298 298 298 298 298 298 298 298 298 298 298 298 298 298 298 298 297 297 297 297 297 297 296 296 296 296 296 295 294 293 292 291 290
307 307 306 305 305 303 303 302 302 302 301 301 299 298 296 296 296 296 296 295 296 299 301 301 301 302 302 301 301 301 300 300 300 300 300 300 300 300 299 299 299 300 299 298 298 298 298 298 298 298 298 298 298 298 298 298 298 298 298 298 298 298 298 298 298 298 298 298 298 298 298 298 298 297 297 296 296 296 296 296 295 295 293 292 292
306 306 305 305 304 303 303 303 302 302 301 300 298 297 296 296 296 296 296 295 296 299 301 301 302 302 302 301 301 301 300 300 300 300 300 300 300 299 299 299 299 299 298 298 298 298 298 298 298 298 298 298 298 298 298 298 298 298 298 298 298 298 298 298 298 298 298 298 298 298 298 298 298 298 298 297 297 296 296 296 296 296 295 294 293
306 305 304 304 303 303 303 303 302 301 300 299 298 296 296 296 296 296 296 296 297 300 301 301 301 301 301 301 301 301 301 301 300 300 300 300 299 299 299 299 299 299 298 298 298 298 298 298 298 298 298 298 298 298 298 298 298 298 298 298 298 298 298 298 298 298 298 298 298 298 299 299 299 299 299 298 298 297 297 296 296 296 296 296 295
305 304 303 303 303 303 303 303 303 302 299 298 297 297 297 297 297 298 298 299 299 301 301 301 302 301 301 301 301 301 301 301 301 300 300 300 300 300 300 299 299 298 298 298 298 298 298 298 298 298 298 298 298 298 298 298 298 298 298 298 298 298 298 298 298 298 298 298 298 298 298 299 299 299 299 298 298 298 298 298 297 296 296 296 296
305 304 303 303 303 303 303 303 303 301 299 298 299 299 299 299 299 300 300 300 301 301 302 302 302 301 301 301 301 300 300 301 301 301 300 300 300 300 300 299 299 298 298 299 299 298 298 298 298 298 298 298 298 298 298 298 298 298 298 298 298 298 298 298 298 298 298 298 298 298 298 298 299 299 299 298 298 298 298 298 298 298 297 296 296
304 303 303 302 303 303 303 303 302 300 299 299 300 300 300 300 301 301 301 301 301 301 302 302 301 301 301 300 300 300 300 300 300 300 300 300 300 299 299 299 299 299 299 299 299 299 299 299 298 298 298 298 298 298 298 298 298 298 298 298 298 298 298 298 298 298 298 298 298 298 298 298 298 299 298 298 298 298 298 299 299 298 298 297 296
Wind_Speed
19 19 19 19 19 18 18 17 15 14 13 11 10 10 10 10 7 4 6 7 6 5 4 3 3 2 2 2 2 2 1 2 3 4 5 7 7 8 8 8 8 9 8 8 8 8 9 11 12 14 14 15 16 16 17 18 18 18 19 20 21 22 25 28 31 37 38 37 39 40 40 41 42 42 43 44 43 42 43 42 42 42 43 44 45
21 20 19 19 19 19 18 16 15 14 13 12 11 11 11 10 6 6 7 7 6 5 4 3 3 3 3 2 2 2 1 1 2 4 5 6 7 7 8 8 8 8 7 7 7 7 9 11 12 13 14 15 16 17 18 18 19 19 19 21 22 23 25 29 31 36 40 41 41 41 41 42 44 44 44 44 44 44 44 44 44 44 45 46 47
20 19 18 19 19 18 16 15 15 15 14 13 12 12 11 8 6 7 7 6 6 5 5 4 4 4 4 3 2 2 1 1 2 3 5 5 6 7 8 7 7 7 6 6 7 8 10 11 12 14 15 16 17 18 18 19 19 20 21 22 24 25 26 28 31 35 41 43 42 42 43 44 45 45 45 44 44 45 46 47 47 47 48 48 48
18 17 18 19 19 17 16 16 16 15 14 14 13 13 11 7 8 8 7 6 6 6 6 6 5 5 4 3 2 2 1 1 2 3 4 4 6 7 7 6 5 6 6 7 8 9 10 12 13 15 17 18 18 19 19 19 20 21 22 24 25 27 28 29 31 34 39 43 43 42 44 45 46 46 46 46 46 46 47 48 48 49 49 48 47
18 18 19 20 18 17 17 17 16 15 15 15 14 12 10 8 9 9 7 7 6 7 7 7 6 5 4 3 2 1 1 0 1 2 3 4 5 6 6 5 5 6 7 8 9 10 11 13 14 16 18 19 19 19 20 21 22 22 24 26 27 28 29 30 32 34 36 41 43 44 45 46 47 46 45 47 49 50 50 49 48 49 50 49 48
19 19 19 19 17 17 18 17 16 16 16 15 13 12 10 10 10 9 8 7 7 7 8 7 7 5 4 3 2 2 1 0 1 1 2 3 5 5 5 5 5 6 7 9 10 11 12 13 15 17 19 19 19 20 21 22 23 24 25 27 28 29 31 32 34 35 36 39 42 45 46 46 47 47 46 47 49 51 54 54 51 50 50 50 50
21 20 18 17 17 17 17 17 17 17 15 14 13 12 12 11 11 10 8 8 8 8 8 7 6 5 4 3 3 2 2 1 1 1 2 3 4 4 5 6 6 6 7 9 10 11 12 14 16 17 18 18 19 21 22 23 24 25 26 28 29 31 33 34 35 36 37 40 42 45 46 46 46 47 48 48 48 49 51 53 56 55 52 52 53
22 20 17 16 16 16 17 18 17 16 15 14 14 13 12 12 11 10 9 9 8 8 8 7 6 5 5 4 4 3 2 2 1 0 1 2 3 4 5 6 7 7 8 8 9 10 12 13 15 16 17 17 18 20 21 23 24 25 26 28 30 32 33 35 36 36 38 41 43 44 45 46 47 48 49 50 50 50 48 49 54 56 56 56 53
21 19 17 16 16 17 18 19 18 17 16 15 14 14 13 13 12 10 10 9 9 8 8 6 5 5 5 5 5 4 3 3 2 0 1 2 2 3 5 6 6 7 8 8 9 10 11 13 14 16 15 15 16 17 19 21 23 25 26 28 30 32 33 34 35 37 39 41 42 44 45 46 47 48 50 50 49 50 49 49 52 55 56 56 50
21 20 18 17 17 18 20 20 19 18 17 15 15 15 14 13 12 11 10 8 8 8 7 6 6 6 5 5 5 4 4 3 2 1 0 1 1 2 4 5 6 6 7 8 8 9 11 12 14 15 14 13 15 17 19 21 23 24 25 28 30 31 33 34 35 37 38 40 41 42 44 45 46 46 48 48 48 49 50 51 54 56 56 55 53
22 22 20 18 19 20 21 21 20 19 17 16 15 15 14 14 12 11 9 8 8 8 7 6 7 6 6 6 5 5 4 4 3 2 1 1 1 2 3 4 5 5 6 7 8 9 10 11 13 13 12 13 16 17 19 22 23 23 24 26 27 28 31 33 35 36 37 38 39 40 41 43 44 44 46 48 49 49 51 52 54 56 55 55 55
25 23 21 21 21 21 21 22 21 20 17 15 14 15 14 13 12 11 9 9 8 8 7 7 7 7 7 7 6 5 5 4 4 3 2 2 1 1 3 3 4 4 5 6 7 8 9 10 11 11 11 13 16 18 20 22 23 24 24 25 25 25 26 29 32 34 35 36 38 38 39 40 42 44 45 48 50 51 52 52 53 54 54 53 52
26 24 23 23 23 23 24 24 22 20 16 14 14 15 15 13 12 11 10 9 9 8 8 8 8 8 8 7 7 6 6 5 4 4 3 2 1 2 3 3 3 4 4 5 6 7 8 10 10 9 11 13 16 18 21 23 24 24 25 25 25 25 25 26 28 30 32 33 35 36 37 37 40 43 44 46 49 52 53 54 54 54 54 52 50
29 26 25 24 24 25 26 25 23 20 17 16 17 17 15 14 13 11 10 10 9 9 9 8 8 8 8 8 7 7 6 6 5 4 3 2 1 1 2 3 3 3 3 4 5 7 8 9 9 9 12 14 16 19 22 24 26 26 26 26 26 26 27 27 28 29 30 30 32 34 35 35 38 41 42 44 47 49 52 53 54 54 53 51 50
31 28 27 26 25 26 26 25 23 20 18 18 18 17 16 15 13 11 10 10 10 9 9 8 9 9 9 9 8 7 7 6 5 4 3 1 0 1 2 3 3 3 3 4 5 6 8 8 9 10 13 15 16 19 22 25 27 28 28 28 28 28 28 29 30 31 30 30 30 32 34 34 36 39 41 42 44 46 48 50 51 52 53 53 52
31 28 27 26 26 26 25 24 22 20 20 20 20 19 17 15 13 12 12 11 11 10 10 9 9 9 9 9 8 7 7 6 5 4 3 1 0 1 2 2 2 3 3 4 4 6 7 8 8 11 13 15 16 18 22 25 27 28 29 29 29 30 29 30 31 31 30 30 30 30 32 33 36 38 39 41 44 46 49 50 51 52 54 56 55
29 28 27 25 25 25 25 23 21 21 22 22 21 19 17 15 13 12 12 12 12 11 11 11 10 10 10 10 9 8 7 6 5 3 2 1 1 1 1 2 2 3 3 3 4 5 6 7 9 11 13 15 16 19 22 25 27 28 29 30 31 31 31 32 32 31 31 31 30 30 31 33 37 39 39 41 44 47 50 53 53 54 55 57 56
29 28 26 24 24 24 23 22 21 21 23 23 21 19 18 16 13 12 12 11 11 12 11 11 12 11 11 10 9 8 7 6 5 3 2 2 0 1 1 2 2 2 3 2 3 4 5 7 9 12 14 15 16 19 22 25 27 29 30 31 32 33 34 34 35 35 34 33 32 32 32 35 38 41 41 42 44 47 49 51 53 54 54 54 54
30 28 26 23 23 23 22 21 21 21 22 23 21 19 18 16 14 13 12 11 11 12 12 12 12 12 12 10 10 8 7 5 4 3 2 1 1 1 1 1 2 2 2 2 2 3 4 6 9 11 13 15 16 19 22 25 27 28 30 31 33 34 35 35 37 37 37 37 36 35 36 37 40 43 43 44 46 47 49 50 52 53 53 52 52
30 27 24 23 22 21 20 20 21 21 22 23 21 19 18 17 15 15 14 13 12 12 12 13 12 12 11 11 10 9 7 5 4 2 2 1 2 2 1 1 2 2 2 2 3 3 4 6 8 10 13 14 16 19 22 24 27 28 29 31 32 34 35 35 36 36 37 38 38 37 38 39 41 44 45 46 48 49 50 51 51 52 51 51 50
30 26 24 22 21 20 19 20 21 22 22 22 21 20 19 18 16 15 15 15 15 14 14 14 13 13 12 12 11 10 8 6 4 3 2 2 2 2 1 2 2 3 3 3 3 3 4 6 7 10 12 14 16 19 21 24 26 27 28 29 30 32 33 34 35 35 36 37 38 39 39 40 42 44 46 48 50 52 52 52 51 51 50 50 49
28 25 23 22 20 20 19 20 22 23 22 22 22 22 20 18 17 16 15 15 16 17 16 15 15 15 14 13 12 10 8 7 5 3 3 3 3 2 1 2 2 3 3 3 3 4 5 6 8 10 12 15 17 19 21 23 25 26 27 28 29 30 31 33 34 35 36 37 39 40 41 41 43 45 47 49 51 53 54 53 52 52 50 48 46
26 25 23 21 20 20 20 22 23 23 23 22 22 22 21 19 18 18 17 17 18 18 18 17 17 17 16 14 12 10 8 7 5 4 3 3 2 2 2 1 2 2 2 3 3 4 5 6 8 10 12 15 17 19 21 23 25 26 27 27 28 30 31 32 33 35 36 37 39 41 42 42 43 45 47 49 52 54 55 54 53 53 51 49 46
27 25 23 22 21 21 21 22 23 23 23 23 23 22 21 21 20 20 19 18 18 19 20 20 19 18 16 14 12 10 8 6 5 4 4 3 2 1 2 2 2 2 2 2 3 4 5 7 8 10 12 14 16 19 21 23 24 26 27 28 28 29 31 32 34 35 36 38 40 41 42 42 43 44 45 47 51 54 55 54 53 53 52 51 49
26 24 23 23 22 21 21 22 23 23 23 23 23 23 23 22 22 21 20 19 19 20 22 22 20 19 16 14 12 10 8 6 5 4 3 2 1 1 1 2 2 2 2 2 3 5 6 7 8 10 11 14 16 18 20 22 24 25 27 27 28 29 31 32 33 35 36 38 39 41 42 41 41 42 43 45 49 53 56 56 55 55 54 53 52
26 24 24 24 22 21 21 22 23 23 23 23 23 22 22 22 22 22 21 21 21 22 23 23 21 19 17 14 12 10 8 6 4 3 2 1 1 1 2 2 3 3 3 3 4 5 6 8 9 10 11 13 16 18 20 22 24 25 26 27 28 28 30 32 33 34 35 37 38 40 41 41 40 41 43 45 48 52 56 58 58 57 57 56 55
25 24 25 24 22 21 21 22 24 24 24 24 23 23 22 22 22 23 23 23 23 23 24 24 22 19 17 14 12 10 8 7 5 3 2 2 2 3 3 4 4 4 4 5 5 6 7 8 10 11 12 13 15 18 21 23 24 25 26 27 27 28 29 30 32 33 34 36 37 38 40 40 41 41 43 45 47 50 54 57 58 58 57 56 56
25 24 24 23 21 21 21 22 24 24 25 25 24 24 23 22 23 24 23 23 23 24 25 24 22 19 17 14 12 10 8 7 5 4 4 4 4 5 5 5 6 6 6 7 7 7 8 9 10 12 12 13 15 17 20 22 24 25 26 26 26 27 27 28 30 31 32 34 36 37 39 40 41 42 43 45 47 49 51 55 57 57 57 56 55
24 24 24 22 21 21 21 22 23 24 25 25 24 23 22 22 23 23 21 21 21 21 21 21 19 18 16 14 11 9 7 4 3 4 5 6 6 6 6 6 7 7 8 9 9 9 9 9 10 12 13 14 15 17 20 22 24 25 25 26 26 26 27 28 29 31 32 33 35 37 39 40 41 42 42 44 46 48 50 53 56 57 57 56 55
24 24 23 22 21 21 22 23 25 25 25 25 24 23 21 20 21 20 20 20 20 19 18 17 16 15 14 12 10 8 5 2 3 5 6 7 7 8 8 7 8 8 9 11 11 10 10 10 10 12 14 15 16 17 20 22 24 25 24 25 25 26 27 27 29 31 32 33 34 36 38 39 41 41 42 43 45 47 49 51 54 56 57 56 55
24 24 23 22 21 21 22 25 26 26 26 25 24 23 22 21 21 20 19 19 20 19 19 17 15 14 13 11 9 8 5 4 5 5 6 8 9 9 8 8 8 9 10 11 11 11 11 11 11 12 14 15 16 17 19 21 24 25 24 24 24 25 26 27 28 29 31 32 33 35 36 38 39 40 41 42 43 45 48 50 52 54 57 56 54
23 23 22 22 21 21 23 25 26 26 26 26 24 23 22 23 23 22 21 21 21 20 20 19 17 16 14 12 11 9 8 7 6 7 8 9 10 10 9 9 9 10 11 11 11 10 11 12 12 12 14 15 16 17 18 19 22 23 23 23 23 24 25 27 28 28 30 31 32 34 35 36 37 38 39 41 42 44 46 49 50 52 55 56 54
22 22 22 22 22 22 24 26 27 27 26 26 25 24 23 23 24 24 24 24 23 22 21 20 19 17 15 13 12 11 10 9 9 9 10 11 11 10 10 9 9 9 9 9 9 9 10 11 12 12 14 15 16 16 17 18 19 20 21 21 22 24 25 27 28 28 29 30 31 32 33 34 35 37 38 39 41 42 43 46 48 49 51 54 54
22 22 21 21 22 23 25 26 27 26 26 26 25 24 23 23 25 26 26 25 25 24 23 21 19 17 15 14 13 12 11 11 11 11 12 12 11 11 10 9 9 8 7 7 8 9 9 10 12 12 13 14 15 16 16 16 17 18 18 18 20 22 24 26 28 29 30 31 31 31 32 33 34 35 37 38 39 41 41 43 46 47 49 51 53
23 22 21 21 22 23 24 25 26 26 26 26 25 23 22 22 23 26 26 25 25 25 23 21 19 17 15 14 14 13 13 12 12 12 13 12 11 10 10 8 7 6 6 7 8 9 10 11 12 13 14 15 15 15 14 14 15 16 16 17 18 21 23 25 27 30 31 32 32 31 31 32 33 33 35 36 38 39 40 41 42 45 46 47 50
23 23 22 22 21 20 22 24 26 26 25 25 24 22 21 21 23 25 25 24 25 24 22 19 18 18 16 15 15 15 15 14 14 14 13 12 11 11 9 8 7 6 7 8 9 10 11 12 13 14 15 15 14 13 13 13 13 14 15 17 18 20 23 25 27 29 31 32 33 32 31 31 32 32 33 34 35 37 38 39 39 41 43 44 46
23 23 22 22 21 20 21 24 26 25 24 24 23 22 21 21 22 24 24 25 26 24 22 20 19 18 16 15 14 16 16 15 15 15 14 13 13 11 9 8 8 9 9 9 10 11 12 12 13 14 15 14 13 12 11 11 12 13 15 17 18 20 22 24 26 28 29 31 32 33 32 31 31 31 32 33 34 35 36 37 37 37 39 41 43
22 22 22 21 21 21 22 25 26 26 25 25 23 22 21 21 22 23 24 25 26 25 22 20 19 18 15 12 12 14 16 16 17 16 15 13 12 10 9 9 10 11 11 11 11 12 13 13 14 15 15 13 11 10 10 11 11 12 14 16 18 20 21 23 24 26 27 29 31 32 33 32 31 31 31 31 32 33 34 35 36 35 36 38 40
24 23 22 21 20 20 21 24 26 26 26 25 24 22 20 20 21 23 24 25 26 25 22 20 19 17 14 12 12 14 16 17 17 16 14 13 12 11 11 12 12 12 13 12 12 13 14 14 14 14 13 12 10 9 10 10 11 12 14 16 18 20 21 22 24 25 26 27 28 30 31 32 32 31 30 30 30 31 32 33 34 34 34 35 36
25 24 23 22 21 20 21 23 25 25 25 24 23 22 21 20 20 22 24 25 26 25 22 20 19 16 14 14 15 15 16 17 16 14 13 13 12 12 13 13 13 13 13 13 13 14 14 13 14 13 11 10 9 9 10 11 11 13 14 16 18 20 21 22 23 24 25 27 27 28 29 30 31 31 31 30 29 30 30 30 31 32 32 31 32
26 25 24 23 22 21 22 23 25 25 24 22 21 21 21 20 20 22 24 25 26 24 21 20 18 15 14 15 16 16 17 17 16 15 15 14 14 13 13 13 13 14 14 15 15 14 14 14 13 13 11 9 9 10 10 11 12 13 15 16 18 19 21 22 23 24 25 26 27 27 27 28 29 30 30 30 30 29 28 29 29 30 31 30 30
27 25 24 24 23 22 22 23 24 25 25 24 21 20 20 20 21 22 23 24 25 23 20 19 17 15 15 16 17 18 19 19 18 18 17 17 16 15 15 14 15 15 16 15 15 14 14 13 13 12 11 9 9 10 11 11 12 13 14 16 17 19 20 22 23 24 25 26 27 27 27 27 27 27 28 29 29 29 28 28 28 29 30 30 29
27 25 23 23 23 23 22 21 22 23 25 25 22 19 19 20 21 22 22 23 24 22 20 19 17 16 16 16 18 19 21 21 20 19 19 17 17 16 16 15 15 15 14 13 12 12 12 12 12 12 12 10 10 10 11 12 12 13 14 15 17 18 20 21 22 23 24 25 25 26 26 26 26 26 26 27 28 28 28 28 27 28 28 29 29
26 25 24 23 23 23 23 21 19 21 23 22 20 19 19 21 22 22 23 23 23 22 21 20 18 17 17 17 19 20 22 21 20 19 18 17 17 16 16 16 15 15 14 13 12 12 13 13 14 14 15 14 13 12 12 12 13 14 15 16 17 19 20 20 20 21 21 22 22 23 24 25 25 25 25 25 26 27 27 28 27 27 27 28 28
26 26 25 24 24 25 25 22 19 19 20 20 19 19 19 20 22 23 23 23 23 23 22 20 19 18 18 18 19 20 21 20 20 19 18 18 17 16 16 16 16 16 16 16 15 15 16 16 17 17 17 17 16 15 14 14 14 14 15 16 18 19 19 19 19 19 19 19 20 21 22 23 24 24 24 24 24 24 25 26 26 27 27 27 27
27 27 26 25 25 26 25 22 19 20 21 21 21 21 20 21 22 22 23 23 24 24 23 21 20 19 19 19 19 20 20 20 20 20 20 20 19 18 17 17 17 18 18 17 16 16 16 17 17 17 18 17 17 16 15 15 15 15 16 17 18 18 18 17 17 17 17 17 18 20 21 21 22 23 24 24 23 23 23 24 25 25 26 26 26
26 27 28 27 26 26 26 23 21 22 22 23 23 23 22 22 22 23 23 24 25 24 23 22 22 21 21 20 20 20 20 20 20 20 21 21 20 19 18 18 18 18 17 15 15 15 15 16 16 17 17 16 16 15 15 15 15 16 17 18 19 19 17 16 16 16 16 16 17 20 21 22 22 22 22 23 23 23 23 22 22 23 24 24 24
25 27 29 29 27 27 26 24 23 24 25 24 24 23 23 23 23 23 24 24 24 23 23 22 21 21 21 21 21 20 19 19 19 19 19 19 19 19 18 18 17 16 15 14 14 15 16 16 17 17 17 17 16 16 16 16 17 18 18 19 19 19 19 17 17 17 17 17 17 18 20 22 22 22 22 22 22 23 23 23 22 22 22 23 23
24 27 30 30 29 28 26 24 24 25 27 26 24 23 23 23 23 23 22 22 22 22 22 22 21 20 21 21 21 21 20 20 20 20 19 18 18 18 18 18 17 16 16 16 16 17 17 18 18 19 19 19 19 19 19 18 19 19 19 19 20 20 20 20 19 18 18 19 19 19 20 21 23 23 23 22 21 21 22 23 23 22 22 21 21
24 26 29 31 31 29 26 23 22 24 27 26 24 22 21 21 21 21 21 21 22 22 22 22 22 21 22 22 22 22 22 23 23 22 22 21 20 20 19 18 17 17 17 17 17 16 16 17 17 18 18 19 19 19 19 19 19 20 20 20 20 20 21 21 21 20 19 20 21 21 20 21 22 24 25 24 22 21 21 22 23 23 22 21 21
24 26 28 31 31 30 26 22 21 25 27 25 22 20 20 20 20 20 20 19 20 21 21 21 21 21 21 21 21 22 23 23 24 24 23 22 21 19 17 16 16 16 16 16 16 15 16 16 16 17 18 18 19 19 19 19 19 20 20 20 20 20 20 20 20 20 20 20 21 22 21 20 21 23 24 24 23 21 21 21 22 22 22 22 21
Wind_Direction
215 218 219 221 226 230 233 234 234 239 242 244 247 243 248 263 265 216 182 179 169 159 156 152 155 159 159 157 133 115 95 67 48 32 22 18 21 23 23 26 27 32 38 39 40 38 29 26 25 25 22 16 14 13 15 16 16 15 11 6 7 1 353 348 340 335 341 346 344 345 346 343 342 343 341 338 338 336 334 333 333 331 330 328 327
215 219 223 227 231 232 232 233 234 237 237 236 237 238 249 263 245 190 180 179 168 160 160 164 171 172 171 175 161 150 131 62 40 26 19 16 21 29 31 33 35 37 40 38 39 38 30 26 24 22 19 15 15 16 17 17 13 11 9 2 359 358 352 347 342 335 336 343 345 344 345 343 341 342 341 339 337 336 335 334 332 331 329 327 326
218 222 228 231 231 230 232 233 233 233 230 229 231 236 248 251 213 184 179 179 177 176 178 181 182 180 178 185 183 175 163 62 35 24 20 19 24 32 36 38 37 38 39 36 38 37 30 26 23 21 19 16 17 20 18 16 12 7 4 360 354 352 351 347 342 336 334 339 344 344 343 343 341 341 341 339 338 337 335 334 332 330 329 327 325
220 225 229 230 230 231 234 233 230 228 224 222 227 234 240 225 193 183 178 181 188 192 192 189 186 184 182 187 192 184 164 57 29 23 21 22 28 32 35 38 36 35 38 37 38 36 30 26 22 18 18 18 18 19 16 13 11 5 360 357 353 350 350 347 342 339 336 337 341 343 342 342 341 342 342 339 338 337 335 333 332 330 328 327 324
223 225 227 228 229 231 231 227 224 222 219 220 225 228 223 202 187 183 180 185 194 196 194 190 186 186 186 188 193 187 167 46 15 17 21 25 29 30 34 40 37 34 37 37 35 34 29 24 19 15 16 18 17 15 13 9 6 3 358 354 352 349 347 347 346 344 340 337 339 342 342 342 341 342 343 340 338 337 335 333 330 328 327 325 323
224 223 225 226 226 226 223 219 219 219 218 218 218 211 200 190 185 184 184 190 196 195 191 190 189 188 188 188 190 193 194 232 343 6 18 24 26 29 33 41 41 36 38 37 32 30 28 22 16 14 14 15 14 11 8 5 2 0 356 352 350 348 348 349 348 345 342 340 340 341 342 342 341 341 343 342 338 336 334 332 329 328 326 325 324
221 220 222 224 223 221 218 215 215 216 213 208 203 197 191 186 184 186 189 192 193 192 191 193 192 187 186 190 194 194 206 229 264 6 17 16 20 27 34 42 44 39 37 36 29 25 25 20 14 10 10 10 10 8 5 1 359 358 354 349 348 347 349 350 348 346 344 342 342 341 341 342 342 342 343 342 338 336 334 331 328 327 328 327 326
218 216 219 223 220 217 215 213 210 209 204 198 195 193 190 187 187 189 192 192 191 189 188 191 191 187 186 189 194 199 208 225 242 332 9 9 17 28 39 47 44 38 35 31 25 20 19 17 11 6 6 8 7 5 3 359 356 354 350 347 347 348 349 349 348 347 345 343 343 342 341 342 343 343 342 342 339 336 335 331 327 327 329 328 327
218 214 215 220 219 214 212 208 204 200 198 196 195 193 189 189 191 192 191 190 187 183 184 187 184 186 189 190 194 199 204 219 231 256 353 9 28 36 45 51 42 34 33 27 19 15 13 11 7 1 2 5 2 0 2 359 354 350 348 347 348 349 349 349 348 347 344 343 343 342 342 344 344 343 342 341 340 336 335 333 329 329 329 327 325
221 220 215 216 216 211 206 202 200 198 197 197 196 193 190 190 193 194 190 185 183 180 184 186 180 181 188 191 193 196 201 212 220 229 290 20 54 49 50 52 39 26 25 20 13 10 9 6 2 358 358 358 354 354 358 357 354 351 350 351 351 350 349 349 348 347 344 343 343 344 344 343 344 343 341 342 341 337 336 335 332 331 331 326 324
219 222 215 211 212 209 203 199 199 199 198 198 195 192 190 191 193 195 187 182 181 181 182 183 181 181 184 187 191 196 199 201 204 211 205 165 99 59 50 46 36 19 10 10 7 3 2 359 357 355 354 350 347 349 351 352 353 354 356 357 356 354 351 349 347 346 344 343 344 346 345 342 342 343 342 343 342 339 338 337 334 332 330 326 324
215 218 212 207 208 208 205 203 202 200 197 197 196 195 194 193 195 194 187 184 185 184 183 182 180 180 181 184 190 192 195 195 193 199 198 179 134 61 46 34 25 11 359 357 357 355 353 353 354 352 348 345 343 344 346 348 352 355 358 0 0 358 355 351 348 346 345 344 345 347 346 342 340 342 344 345 343 341 340 337 335 332 329 327 323
214 215 211 207 205 205 207 207 205 200 198 201 203 201 198 197 196 194 190 189 187 185 185 182 179 181 181 182 186 186 187 189 189 193 197 187 130 57 43 30 15 359 348 344 345 345 344 347 350 347 341 343 344 342 343 347 351 354 357 0 1 359 358 356 352 349 347 346 346 347 347 343 339 341 345 346 344 343 341 338 335 333 330 328 325
214 212 209 207 204 203 203 204 202 199 201 206 206 202 199 198 196 195 193 190 187 187 187 182 179 181 181 179 181 182 183 187 189 191 195 185 118 49 39 33 16 352 337 334 336 337 339 343 345 340 340 346 345 339 340 347 350 352 354 357 358 358 358 358 356 354 351 350 348 347 347 344 341 342 345 348 347 345 341 337 335 334 332 330 330
209 208 206 204 202 200 200 200 199 201 205 207 203 200 201 199 197 194 188 184 184 184 184 183 180 181 181 177 175 178 183 186 188 190 190 187 146 23 23 22 13 352 337 333 333 334 336 339 338 335 342 348 342 335 340 347 349 349 351 354 355 356 357 358 358 356 354 353 352 349 347 346 345 344 346 350 350 347 343 338 337 336 335 333 334
208 207 205 203 200 199 200 200 200 204 207 204 200 200 201 199 198 192 184 181 182 180 178 180 181 182 180 175 172 177 184 184 185 189 189 187 252 346 1 2 0 355 347 338 333 332 333 335 333 335 342 343 338 336 341 346 347 348 350 351 352 353 354 356 358 357 354 354 354 352 349 349 348 348 349 353 353 350 346 343 342 341 338 335 335
211 210 207 204 201 200 202 203 203 206 207 203 199 199 199 197 197 193 187 183 180 177 177 177 178 181 181 176 173 178 182 180 181 187 189 189 234 329 342 351 2 2 353 343 334 331 331 330 331 334 338 337 336 338 342 345 346 348 349 350 350 350 352 354 354 355 354 355 355 353 352 352 352 352 353 357 358 355 349 345 344 343 340 337 335
216 215 211 207 206 206 207 209 208 207 206 203 200 199 198 196 195 192 189 185 178 175 177 179 179 180 180 177 175 175 179 179 179 186 190 191 188 22 4 3 12 8 359 350 336 332 331 329 328 331 333 335 336 340 343 346 347 349 349 349 349 349 351 351 350 351 353 354 355 355 355 355 355 355 357 360 3 1 354 348 345 344 342 340 338
220 217 214 211 210 210 210 212 210 206 205 204 202 201 199 197 196 192 187 184 180 177 179 183 184 181 177 175 172 171 173 173 174 183 185 165 94 77 63 36 32 19 10 4 348 339 333 327 327 330 335 337 339 343 348 349 349 350 349 348 348 349 350 349 348 349 351 353 355 357 357 358 358 359 359 2 5 5 0 354 350 347 344 343 342
221 217 214 212 210 211 213 213 210 206 206 205 203 201 201 199 198 195 189 184 184 184 182 182 185 184 179 174 169 166 165 162 164 173 165 127 103 98 92 65 50 35 23 12 355 344 332 326 328 336 342 344 347 351 354 353 352 352 350 348 348 348 348 347 347 347 349 351 354 357 358 359 360 1 1 3 5 6 5 2 357 352 349 346 345
219 215 214 212 210 212 214 212 209 207 207 205 203 202 203 203 202 199 194 188 187 188 187 186 189 189 183 176 171 166 161 157 157 157 134 109 99 97 87 64 50 34 17 7 354 342 335 335 342 350 353 355 357 359 360 358 356 354 352 350 348 346 346 345 345 346 348 351 354 357 359 359 0 2 3 4 6 7 8 6 3 359 356 352 348
219 216 212 211 211 211 210 208 207 208 207 205 204 204 203 205 207 205 200 193 189 190 192 193 191 187 182 179 176 172 167 162 156 142 112 96 91 82 61 48 44 25 4 355 346 340 343 347 354 359 0 2 4 4 3 1 358 356 354 352 349 347 346 345 345 347 349 352 354 358 0 1 0 1 3 4 6 8 9 9 6 3 2 360 355
221 217 212 212 211 208 207 207 208 208 205 204 205 206 204 204 207 208 205 198 193 192 194 194 191 187 184 183 181 178 174 168 157 134 105 89 84 69 39 23 20 6 342 330 331 338 346 348 352 358 2 4 6 5 4 2 359 357 356 353 351 349 347 346 347 349 351 353 355 358 1 1 0 0 2 4 7 8 9 9 9 7 5 5 4
218 214 213 213 210 206 207 209 210 208 205 204 206 207 207 206 206 208 208 202 198 195 194 194 193 190 187 186 184 182 178 173 162 137 109 90 79 59 25 4 353 332 307 307 323 336 343 345 347 353 360 4 5 5 4 3 0 358 357 354 352 351 350 349 350 351 352 354 356 357 360 1 1 0 1 4 7 8 9 10 11 9 8 8 10
215 213 213 212 208 206 207 208 209 207 205 205 207 207 207 207 207 207 205 202 201 198 196 196 196 195 192 189 186 184 180 177 170 145 120 104 71 28 3 355 343 323 309 315 331 339 342 344 344 350 357 2 4 4 3 3 2 360 358 356 354 353 352 352 351 352 353 355 356 356 358 0 1 1 1 4 7 9 9 10 12 12 11 12 15
214 212 212 210 208 208 208 206 207 206 205 207 208 209 209 209 208 205 201 200 201 200 198 198 199 198 197 192 187 185 184 184 181 165 150 157 277 291 310 324 316 314 318 323 330 337 340 342 343 347 353 358 1 2 3 4 4 2 359 357 355 354 354 353 353 353 354 355 356 356 357 359 1 2 3 4 8 10 11 11 11 12 13 13 15
213 211 211 209 208 209 208 206 204 204 206 207 209 210 212 212 210 205 200 201 202 200 200 202 201 200 199 193 188 189 192 193 193 196 208 233 265 279 292 301 299 302 308 311 315 320 327 334 338 343 349 355 359 2 3 4 5 5 2 359 356 355 355 355 354 354 355 356 356 356 357 358 0 3 5 6 7 10 12 13 12 12 13 13 13
213 211 210 209 210 211 210 207 205 204 205 207 208 209 210 211 210 206 204 206 205 202 201 203 205 206 203 195 192 195 199 201 204 217 240 258 269 276 287 296 295 296 297 297 300 303 309 321 330 337 344 351 356 1 4 5 6 6 4 1 358 356 355 355 356 357 357 357 357 356 357 359 1 3 5 7 7 9 12 14 14 13 14 14 13
211 212 211 210 212 213 210 209 207 205 206 206 207 210 212 211 209 207 208 210 211 209 208 208 208 209 205 198 196 197 195 200 217 234 251 264 270 273 283 291 292 291 288 287 288 292 300 313 325 334 342 348 352 358 3 5 6 7 5 2 359 357 357 357 358 359 359 359 358 357 357 359 1 3 4 6 8 9 10 14 16 16 15 15 15
211 212 211 211 213 213 209 207 207 207 207 206 205 208 211 212 212 211 212 210 209 210 213 212 211 210 205 200 202 200 191 208 245 252 259 266 270 273 280 287 289 289 286 284 285 287 295 308 322 332 339 345 349 354 358 2 3 4 6 5 1 359 360 360 360 0 1 1 0 358 358 359 1 3 3 4 8 9 10 12 16 18 17 17 17
213 213 213 214 216 215 210 207 206 207 207 206 206 206 206 206 208 210 211 210 209 208 210 208 206 207 207 208 212 215 216 230 250 263 268 267 269 274 278 282 287 288 286 285 286 288 292 301 315 327 334 341 347 350 354 358 0 1 4 8 7 4 3 3 3 2 2 3 2 0 359 360 1 3 3 3 5 9 10 10 13 18 19 18 18
220 219 217 216 215 214 210 208 207 207 207 207 208 208 206 204 204 203 203 206 208 207 206 204 204 208 212 215 219 223 228 239 260 275 275 270 270 273 274 275 280 285 286 288 291 293 294 300 311 322 329 336 344 348 350 354 357 360 4 9 12 11 8 7 6 4 2 2 3 2 0 0 1 3 3 2 3 7 9 10 11 15 19 20 19
224 222 220 216 213 211 210 209 208 208 208 208 209 210 209 207 204 200 199 201 204 205 205 206 209 212 214 217 222 225 229 239 256 270 275 273 270 268 267 269 274 281 286 290 295 299 299 302 309 317 321 329 339 344 347 350 355 360 5 9 12 14 13 10 9 6 3 3 4 3 2 0 1 3 4 3 2 4 7 10 11 12 17 19 19
224 224 223 220 215 212 211 211 210 210 211 212 212 212 213 211 207 202 200 201 202 204 205 208 213 215 215 219 226 230 234 241 254 267 272 270 263 259 260 263 268 276 286 294 302 306 305 304 308 312 315 321 331 339 343 347 352 357 3 8 10 12 13 12 11 9 6 4 4 5 4 1 1 2 4 3 2 2 5 8 11 11 14 18 19
224 224 224 223 220 217 214 213 213 214 215 215 215 214 216 216 212 207 205 205 205 206 207 210 215 217 220 225 232 238 242 248 257 267 267 258 249 250 254 255 257 268 285 298 303 307 307 307 307 308 308 313 324 333 337 341 347 353 358 1 4 5 6 7 8 9 8 6 5 5 5 3 2 3 4 4 3 2 2 5 9 11 12 15 18
223 222 221 222 223 222 219 216 216 217 217 217 217 217 217 217 214 211 210 211 211 210 210 214 217 220 225 231 238 244 247 251 257 261 256 245 240 246 250 251 255 266 282 296 302 304 308 308 306 304 303 307 317 327 331 334 341 349 351 352 354 356 357 358 1 4 7 7 6 5 5 4 3 3 4 6 5 3 2 2 6 10 12 13 17
224 222 221 222 223 222 221 220 219 219 219 218 218 218 217 216 215 213 213 215 215 214 214 217 221 224 229 236 245 250 251 252 251 248 242 237 240 247 251 257 265 272 280 291 297 299 303 307 307 304 301 302 311 321 324 326 334 342 345 346 347 348 350 352 353 356 1 5 6 5 5 5 5 4 4 6 6 5 4 2 3 7 10 12 15
228 227 225 223 221 220 221 221 220 220 219 218 218 219 217 215 215 215 215 216 216 215 217 222 225 227 232 242 252 254 250 244 240 237 237 241 247 255 262 268 274 278 283 290 293 294 297 302 305 304 300 298 304 313 316 319 327 334 338 341 343 344 345 347 348 350 354 358 2 4 5 5 5 5 5 6 6 6 5 3 2 2 7 11 14
228 228 226 224 221 220 220 221 221 220 220 219 219 219 217 214 215 216 216 216 216 216 220 225 228 230 234 242 250 249 242 236 233 235 240 248 255 265 272 275 277 282 287 290 292 292 294 296 300 302 300 295 296 303 308 312 320 328 332 336 339 341 342 342 343 345 348 352 355 359 2 4 6 6 5 6 7 6 6 5 3 2 4 8 12
225 225 223 222 222 221 221 222 222 221 220 219 220 221 220 216 215 215 214 214 215 217 222 227 230 232 233 237 241 242 240 238 240 243 247 253 261 269 275 275 277 283 288 290 291 293 293 293 295 298 296 290 289 294 301 306 313 321 326 330 333 337 339 339 339 341 343 345 348 352 355 359 3 5 6 6 7 7 7 6 4 3 3 5 8
224 223 221 220 221 222 224 224 223 223 220 218 218 219 218 217 215 213 212 213 215 219 225 231 232 231 230 232 236 240 241 243 247 250 251 255 261 266 269 271 276 282 287 289 292 293 291 289 292 296 294 287 284 288 295 302 308 316 322 326 329 333 337 339 339 338 338 339 341 344 348 352 356 1 5 6 6 7 7 7 6 5 4 4 6
225 223 220 219 219 221 224 225 226 225 223 221 221 220 218 217 214 210 210 214 218 222 228 233 231 226 225 228 235 241 244 246 248 250 253 256 259 261 264 269 276 282 286 288 290 289 285 284 289 295 295 291 287 288 292 298 307 314 319 324 327 331 335 338 339 338 336 336 336 338 341 344 348 354 360 3 5 6 7 8 8 7 5 4 4
227 223 222 221 220 220 221 224 226 227 225 224 224 224 222 218 211 206 208 215 220 225 231 233 229 225 225 231 239 244 246 247 249 252 255 257 258 261 266 272 278 281 283 285 285 283 281 283 287 293 298 298 296 293 293 297 304 310 315 319 324 328 331 334 338 338 337 335 335 335 336 337 340 345 351 357 2 5 6 7 7 7 7 5 3
229 224 223 223 223 221 219 220 225 229 227 224 222 222 220 214 207 204 208 215 221 227 231 232 231 230 232 237 242 245 246 247 249 253 257 258 260 265 270 275 277 277 277 278 279 278 278 281 284 288 293 295 295 295 295 296 300 305 309 313 317 321 325 329 334 336 335 334 334 335 335 336 337 338 341 347 354 360 4 6 6 6 7 6 4
230 225 221 221 223 221 218 217 223 228 225 219 217 217 216 210 205 205 210 216 222 228 232 234 235 236 238 241 245 247 249 250 251 253 257 259 262 268 272 273 274 275 277 278 277 275 276 278 279 281 285 288 290 291 291 293 296 300 304 308 312 316 321 325 329 331 331 330 331 333 335 336 337 337 336 338 343 350 357 2 4 5 5 5 4
230 225 221 220 219 217 215 216 222 223 219 213 210 209 208 205 205 208 214 220 226 230 234 236 238 240 242 245 249 252 254 255 256 257 259 260 262 267 272 273 275 278 280 280 277 275 275 277 278 280 281 284 286 287 287 289 292 295 300 305 308 312 317 321 323 325 327 328 329 331 333 337 340 339 336 334 335 340 347 353 358 1 2 3 3
230 226 223 220 216 213 214 217 219 216 212 209 207 207 206 206 207 212 220 226 229 232 236 241 244 247 248 250 252 254 258 262 263 264 263 263 264 267 271 273 277 279 278 274 271 271 273 276 278 281 281 281 283 284 285 287 289 292 297 301 304 308 312 314 316 318 321 322 326 329 330 333 338 340 337 335 334 334 337 341 347 352 356 359 0
228 226 224 221 215 213 217 222 221 215 209 206 206 207 208 210 213 219 226 230 232 235 240 246 250 251 252 252 253 256 260 265 266 266 266 265 265 266 269 273 276 275 270 267 267 271 274 276 278 279 280 281 281 282 283 285 287 289 293 296 299 302 304 304 305 310 312 314 317 321 323 326 331 333 333 334 335 335 334 334 336 340 345 351 355
227 225 223 220 216 216 222 230 229 219 209 205 207 209 211 214 219 226 232 234 236 241 245 249 251 253 253 254 255 257 260 263 265 266 267 266 266 267 270 273 272 267 265 268 272 274 276 278 278 278 280 281 281 282 283 286 287 289 291 293 295 297 297 297 298 301 304 306 308 311 314 319 323 324 324 326 329 332 333 333 332 332 333 337 344
226 224 222 220 218 219 226 234 230 216 208 209 214 218 220 222 227 232 235 236 239 244 247 250 253 255 257 257 258 260 262 263 265 266 268 269 271 272 272 270 267 264 266 271 274 275 276 278 278 278 279 279 281 283 285 288 289 291 292 292 293 293 293 294 295 298 301 304 307 307 309 313 317 318 320 322 323 324 327 329 330 330 329 328 330
225 224 223 222 221 222 227 231 221 208 206 215 223 225 225 227 229 230 231 233 237 243 249 252 256 259 261 263 265 266 267 268 268 268 268 269 270 270 267 264 262 263 267 270 272 273 275 277 278 279 280 281 282 285 287 289 291 292 293 294 293 292 292 294 297 298 299 300 303 305 307 309 312 314 318 322 323 322 321 322 323 325 325 323 322